TimeCST,TemperatureF,Dew PointF,Humidity,Sea Level PressureIn,VisibilityMPH,Wind Direction,Wind SpeedMPH,Gust SpeedMPH,PrecipitationIn,Events,Conditions,WindDirDegrees,DateUTC
12:53 AM,26.1,21.9,84,30.16,10.0,East,4.6,-,N/A,,Clear,90,2012-11-20 06:53:00
1:53 AM,24.1,21.0,88,30.17,10.0,Calm,Calm,-,N/A,,Clear,0,2012-11-20 07:53:00
2:53 AM,28.0,26.1,92,30.14,10.0,ESE,4.6,-,N/A,,Clear,110,2012-11-20 08:53:00
3:53 AM,30.9,26.1,82,30.11,10.0,ESE,6.9,-,N/A,,Clear,120,2012-11-20 09:53:00
4:53 AM,33.1,27.0,78,30.09,10.0,East,5.8,-,N/A,,Clear,100,2012-11-20 10:53:00
5:53 AM,33.1,28.0,82,30.09,10.0,SE,11.5,-,N/A,,Clear,130,2012-11-20 11:53:00
6:53 AM,33.1,28.0,82,30.07,10.0,ESE,10.4,-,N/A,,Clear,120,2012-11-20 12:53:00
7:53 AM,33.1,27.0,78,30.06,10.0,SE,9.2,-,N/A,,Clear,140,2012-11-20 13:53:00
8:53 AM,36.0,30.0,79,30.05,10.0,SE,8.1,-,N/A,,Clear,130,2012-11-20 14:53:00
9:53 AM,42.1,30.0,62,30.04,10.0,SE,9.2,-,N/A,,Clear,140,2012-11-20 15:53:00
10:53 AM,48.9,30.9,50,30.03,10.0,SE,9.2,-,N/A,,Clear,130,2012-11-20 16:53:00
11:53 AM,57.0,33.1,40,29.99,10.0,SE,6.9,-,N/A,,Clear,130,2012-11-20 17:53:00
12:53 PM,64.0,33.1,31,29.95,10.0,West,4.6,-,N/A,,Clear,270,2012-11-20 18:53:00
1:53 PM,64.9,33.1,31,29.93,10.0,NW,9.2,-,N/A,,Clear,310,2012-11-20 19:53:00
2:53 PM,64.9,33.1,31,29.91,10.0,NNW,5.8,-,N/A,,Clear,330,2012-11-20 20:53:00
3:53 PM,62.1,34.0,35,29.92,10.0,NNW,3.5,-,N/A,,Clear,340,2012-11-20 21:53:00
4:53 PM,50.0,33.1,52,29.94,10.0,NNW,4.6,-,N/A,,Clear,330,2012-11-20 22:53:00
5:53 PM,44.1,32.0,63,29.95,10.0,ENE,3.5,-,N/A,,Clear,70,2012-11-20 23:53:00
6:53 PM,43.0,32.0,65,29.94,10.0,Calm,Calm,-,N/A,,Clear,0,2012-11-21 00:53:00
7:53 PM,45.0,33.1,63,29.94,10.0,Calm,Calm,-,N/A,,Clear,0,2012-11-21 01:53:00
8:53 PM,41.0,32.0,70,29.95,10.0,WNW,4.6,-,N/A,,Clear,290,2012-11-21 02:53:00
9:53 PM,37.9,32.0,79,29.94,10.0,SW,4.6,-,N/A,,Clear,220,2012-11-21 03:53:00
10:53 PM,36.0,30.0,79,29.93,10.0,SW,3.5,-,N/A,,Clear,220,2012-11-21 04:53:00
11:53 PM,35.1,30.0,82,29.91,10.0,Calm,Calm,-,N/A,,Clear,0,2012-11-21 05:53:00